Location: *
(43.4667°N, 11.6833°E)
Time: 00:09:42
(UTC+00:00)

ERS-2 - Pass Details

Date: 19 July 2019
Orbit: 494 x 501 km, 98.5° (Epoch: 21 August)

Event Time Altitude Azimuth Distance (km) Brightness Sun altitude
Exits shadow 23:42:19 26° 305° (NW) 1,008 3.9 -25.6°
Drops below altitude 10° 23:44:24 10° 329° (NNW) 1,717 5.5 -25.5°
Sets 23:46:37 0° 338° (NNW) 2,606 6.7 -25.5°
